KILEMING2 Weather Reports


time (UTC)temp
F
wind
direction
speed
knots
gust
knots
rain 1hr
in
rain 24hr
in
rain mn
in
humidity
%
barometer
mb
20260504034608 50 360 2.6 4.3 0.00 0.00 0.00 80 1007.9
20260504033057 52 360 2.6 4.3 0.00 0.00 0.00 78 1008.0
20260504031557 52 360 3.5 7.0 0.00 0.00 0.00 77 1008.1
20260504030052 53 360 3.5 7.0 0.00 0.00 0.00 76 1008.1
20260504024551 54 360 4.3 8.7 0.00 0.00 0.00 74 1008.1
20260504023051 53 360 3.5 7.0 0.00 0.00 0.00 74 1008.3
20260504021550 53 360 2.6 4.3 0.00 0.00 0.00 73 1008.2
20260504014556 54 360 2.6 3.5 0.00 0.00 0.00 70 1007.9
20260504013038 58 360 2.6 7.0 0.00 0.00 0.00 66 1007.9
20260504011536 61 360 5.2 8.7 0.00 0.00 0.00 62 1007.8
20260504010035 62 360 6.1 9.6 0.00 0.00 0.00 61 1007.7
20260504004534 63 360 3.5 7.8 0.00 0.00 0.00 60 1007.8
20260504003032 64 360 1.7 7.8 0.00 0.00 0.00 58 1007.8
20260504001535 65 360 3.5 9.6 0.00 0.00 0.00 56 1007.9
20260504000037 66 360 4.3 13.9 0.00 0.00 0.00 55 1008.5
20260503234530 66 360 4.3 13.9 0.00 0.00 0.00 53 1007.7
20260503233029 67 360 5.2 17.4 0.00 0.00 0.00 52 1008.0
20260503231528 67 360 7.0 16.5 0.00 0.00 0.00 51 1008.1
20260503230032 66 360 10.4 18.2 0.00 0.00 0.00 52 1008.2
20260503224526 66 360 8.7 22.6 0.00 0.00 0.00 52 1008.2
20260503223023 66 360 15.6 25.2 0.00 0.00 0.00 51 1008.3
20260503221523 65 360 14.8 24.3 0.00 0.00 0.00 51 1008.2
20260503220022 67 360 17.4 26.1 0.00 0.00 0.00 50 1008.4
20260503214536 65 360 13.9 26.9 0.00 0.00 0.00 51 1008.5
20260503213021 68 360 20.0 27.8 0.00 0.00 0.00 48 1008.5
20260503211518 66 360 14.8 25.2 0.00 0.00 0.00 51 1008.6
20260503210016 66 360 20.9 33.0 0.00 0.00 0.00 50 1008.8
20260503204516 65 360 20.0 27.8 0.00 0.00 0.00 51 1009.1
20260503203014 66 360 20.9 30.4 0.00 0.00 0.00 49 1009.6
20260503201510 65 360 18.2 27.8 0.00 0.00 0.00 51 1009.8
20260503200012 65 360 22.6 33.0 0.00 0.00 0.00 49 1009.9
20260503194506 65 360 22.6 32.2 0.00 0.00 0.00 48 1010.4
20260503193006 65 360 19.1 32.2 0.00 0.00 0.00 49 1010.6
20260503191514 64 360 20.9 29.5 0.00 0.00 0.00 48 1010.5
20260503190004 63 360 23.5 32.2 0.00 0.00 0.00 50 1010.8
20260503184626 62 360 20.0 33.0 0.00 0.00 0.00 50 1011.3
20260503183100 63 360 20.0 26.9 0.00 0.00 0.00 50 1011.7
20260503181611 62 360 20.0 27.8 0.00 0.00 0.00 51 1011.9
20260503180110 62 360 20.0 25.2 0.00 0.00 0.00 53 1012.5
20260503174555 61 360 15.6 21.7 0.00 0.00 0.00 56 1013.0
20260503173055 57 360 13.0 19.1 0.00 0.00 0.00 60 1013.7
20260503171539 56 360 10.4 18.2 0.00 0.00 0.00 62 1014.3
20260503081536 40 360 5.2 7.8 0.00 0.00 0.00 78 1016.9
20260503071520 40 360 4.3 7.0 0.00 0.00 0.00 79 1017.2
20260503054510 38 360 2.6 4.3 0.00 0.00 0.00 79 1018.0
20260503053003 39 360 1.7 3.5 0.00 0.00 0.00 78 1018.2
20260503051601 39 360 1.7 3.5 0.00 0.00 0.00 76 1018.3
20260503050058 40 360 1.7 3.5 0.00 0.00 0.00 76 1018.3
20260503044609 40 360 1.7 3.5 0.00 0.00 0.00 75 1018.4
20260503043059 40 360 1.7 2.6 0.00 0.00 0.00 75 1018.4
20260503041555 41 360 1.7 3.5 0.00 0.00 0.00 74 1018.5